This is the latest recevied weather packets stored in our database for station/object KO4IDC-13. If no packets are shown the sender has not sent any weather packets the latest 10 day(s).
| Time | Temp. | Humidity | Pressure | Rain* | Wind** | Luminosity | Snow |
|---|---|---|---|---|---|---|---|
| 1778004549 | 16.11° C | 96% | 1010.9 hPa | 0 mm | - | 223 W/m² | - |
| 1778004245 | 16.11° C | 96% | 1010.9 hPa | 0 mm | - | 180 W/m² | - |
| 1778003942 | 16.11° C | 96% | 1011.1 hPa | 1.78 mm | - | 96 W/m² | - |
| 1778003638 | 16.11° C | 96% | 1011.2 hPa | 1.78 mm | - | 107 W/m² | - |
| 1778003334 | 16.11° C | 96% | 1011.2 hPa | 0 mm | - | 86 W/m² | - |
| 1778003032 | 16.11° C | 96% | 1011.3 hPa | 0 mm | - | 98 W/m² | - |
| 1778002728 | 16.11° C | 96% | 1011.3 hPa | 0 mm | - | 76 W/m² | - |
| 1778002425 | 16.11° C | 96% | 1011.1 hPa | 0 mm | - | 122 W/m² | - |
| 1778002122 | 16.11° C | 96% | 1011.1 hPa | 0 mm | - | 111 W/m² | - |
| 1778001820 | 16.11° C | 96% | 1011.1 hPa | 1.27 mm | - | 141 W/m² | - |
| 1778001519 | 16.11° C | 96% | 1010.8 hPa | 1.27 mm | - | 198 W/m² | - |
| 1778001216 | 16.11° C | 96% | 1011.3 hPa | 0 mm | - | 234 W/m² | - |
| 1778000913 | 16.11° C | 96% | 1011.1 hPa | 1.78 mm | - | 193 W/m² | - |
| 1778000610 | 15.56° C | 96% | 1010.9 hPa | 4.83 mm | - | 171 W/m² | - |
| 1778000305 | 15.56° C | 96% | 1010.8 hPa | 8.89 mm | - | 125 W/m² | - |
| 1778000001 | 15.56° C | 96% | 1011.1 hPa | 8.89 mm | - | 71 W/m² | - |
| 1777999697 | 15.56° C | 96% | 1011.1 hPa | 3.05 mm | - | 83 W/m² | - |
| 1777999394 | 15.56° C | 96% | 1011.2 hPa | 1.78 mm | - | 60 W/m² | - |
| 1777999092 | 15.56° C | 96% | 1011.3 hPa | 3.05 mm | - | 59 W/m² | - |
| 1777998790 | 15.56° C | 96% | 1011.5 hPa | 3.05 mm | - | 67 W/m² | - |
| 1777998488 | 15.56° C | 95% | 1011.8 hPa | 3.05 mm | - | 72 W/m² | - |
| 1777998184 | 15.56° C | 95% | 1011.8 hPa | 3.05 mm | - | 67 W/m² | - |
| 1777997881 | 15.56° C | 95% | 1012.3 hPa | 3.05 mm | - | 67 W/m² | - |
| 1777997579 | 15.56° C | 95% | 1011.9 hPa | 1.27 mm | - | 66 W/m² | - |
| 1777997276 | 15.56° C | 95% | 1012 hPa | 1.78 mm | - | 66 W/m² | - |
* Rain latest hour (hover to see other rain measurements)
** Current wind speed in m/s (hover to see current wind gust speed)